Back to catalog

MOMENTUS-X1

AliveSciencePO
NORAD 44408·PAYLOAD·🇺🇸 United States

Launched Jul 5, 2019 from Vostochny Cosmodrome

Loading…

Next Passes (next 24 hours)

TLE

FreshSource: Space-Track

Epoch: Sep 14, 2026, 02:45 UTC

1 44408U 19038Y   26257.11464075  .00062388  00000-0  41557-3 0  9993
2 44408  97.6627 311.1507 0005854  53.2511 306.9290 15.75197972400518

Track MOMENTUS-X1 in real time with AllMySat

Download on the App Store